WS Maaseik 1 Meer informatie WS Maaseik 1


WS Maaseik 2 Meer informatie WS Maaseik 2


Regen radar Meer informatie rain snow radar


Bezoek onze andere website:

Vorige versie
weerstation Maaseik


Bezoek ook eens deze sites:

Weerstation Geleen



Het weer levert geen direct gevaar op.    Er zijn geen waarschuwingen afgegeven.

15 daagse weersverwachting Boulogne-Billancourt (FR)

  • Overzicht
  • Per uur
  • 15 dagen
  • Extra
  • Vergelijk
  • Kaarten
  • Dagkaart
  • Meer »
  • Info
  • Statistieken
  • Directe link
    Temp 6h Neerslag Wind  
 06:07     21:28    Daglengte: 15:21 Vandaag
20:00
27°
 
3
 06:06     21:30    Daglengte: 15:24 Morgen
02:00
21°
 
4
08:00
18°
 
3
14:00
26°
 
2
20:00
26°
 
3
 06:05     21:31    Daglengte: 15:26 Donderdag 19 Mei
02:00
21°
 
3
08:00
19°
 
4
14:00
25°
 
3
20:00
25°
3.3 mm
3
 06:04     21:32    Daglengte: 15:28 Vrijdag 20 Mei
02:00
19°
 
3
08:00
18°
5.5 mm
1
14:00
22°
17.1 mm
4
Locatie info
Region: Île-de-France
Latitude: 48.8352°N
Longitude: 2.2408°E
38 masl
Postcode: 92100
Temp/Neerslag /Baro Onweer/Dauwpunt
    Temp Baro 1h Neerslag Dauwpunt Wind UV Bewolking  
 06:07     21:28    Daglengte: 15:21 Vandaag
18:00
28°
Voelt als: 27.4°
1016.4 hPa   10.8°
4
Windvlaag: 7.9 m/s
7%
19:00
28°
Voelt als: 27.0°
1016.2 hPa   10.7°
4
Windvlaag: 8 m/s
2%
20:00
27°
Voelt als: 26.7°
1016.1 hPa   10.9°
3
Windvlaag: 6.8 m/s
7%
21:00
26°
1016.2 hPa   10.6°
3
Windvlaag: 5.4 m/s
8%
22:00
24°
1016.8 hPa   11.7°
2
Windvlaag: 3.9 m/s
16%
23:00
23°
1016.9 hPa
15%
13.3°
2
Windvlaag: 2.5 m/s
13%
 06:06     21:30    Daglengte: 15:24 Morgen
00:00
22°
1017.4 hPa
23%
14.6°
2
Windvlaag: 3.4 m/s
16%
01:00
21°
1017.9 hPa
14%
16.5°
3
Windvlaag: 3.5 m/s
19%
02:00
21°
1018.5 hPa
14%
16.7°
4
Windvlaag: -3.4 m/s
13%
03:00
19°
1019.0 hPa
16%
15.1°
3
Windvlaag: -4.5 m/s
20%
04:00
19°
1019.4 hPa
14%
14.4°
3
Windvlaag: -3.7 m/s
10%
05:00
18°
1019.8 hPa
14%
14.4°
3
Windvlaag: -4.1 m/s
10%
06:00
17°
1020.5 hPa
14%
14.4°
4
Windvlaag: -5.5 m/s
9%
07:00
17°
1021.1 hPa
14%
14.1°
3
Windvlaag: -4.9 m/s
6%
08:00
18°
1021.9 hPa
14%
13.1°
3
Windvlaag: -4.3 m/s
6%
09:00
19°
1022.1 hPa
14%
12.5°
3
Windvlaag: -4.3 m/s
11%
10:00
20°
1022.2 hPa
14%
12.4°
3
Windvlaag: -4.7 m/s
16%
11:00
21°
1022.0 hPa
15%
12.8°
2
Windvlaag: -4.5 m/s
22%
12:00
23°
1021.8 hPa
14%
12.7°
2
Windvlaag: -3.5 m/s
12%
13:00
24°
1021.2 hPa
14%
11.9°
2
Windvlaag: -3.1 m/s
9%
14:00
26°
1020.6 hPa
14%
11.0°
2
Windvlaag: -2.9 m/s
15%
15:00
27°
Voelt als: 26.5°
1019.9 hPa
14%
10.4°
2
Windvlaag: -3 m/s
13%
16:00
28°
Voelt als: 27.0°
1019.0 hPa
14%
10.4°
2
Windvlaag: -1.7 m/s
13%
17:00
28°
Voelt als: 27.3°
1018.4 hPa
14%
10.2°
2
Windvlaag: -0.7 m/s
29%
18:00
28°
Voelt als: 27.3°
1017.8 hPa
14%
10.2°
2
Windvlaag: 4.4 m/s
43%
19:00
28°
Voelt als: 27.1°
1017.2 hPa
14%
9.8°
2
Windvlaag: 4.6 m/s
48%
20:00
26°
Voelt als: 26.0°
1017.2 hPa
14%
8.6°
3
Windvlaag: 3.4 m/s
34%
21:00
25°
1016.9 hPa
14%
8.3°
2
Windvlaag: 2.9 m/s
13%
22:00
24°
1016.9 hPa
14%
8.7°
3
Windvlaag: 2.8 m/s
47%
23:00
23°
1016.7 hPa
21%
10.3°
3
Windvlaag: 2.9 m/s
14%
 06:05     21:31    Daglengte: 15:26 Donderdag 19 Mei
00:00
22°
1016.6 hPa
58%
11.0°
2
Windvlaag: 3.2 m/s
17%
01:00
21°
1016.2 hPa
22%
11.9°
2
Windvlaag: 3.1 m/s
49%
02:00
21°
1015.8 hPa
14%
12.1°
3
Windvlaag: 4.3 m/s
13%
03:00
20°
1015.5 hPa
14%
12.5°
3
Windvlaag: 4.5 m/s
48%
04:00
20°
1015.6 hPa
22%
12.5°
3
Windvlaag: 4.9 m/s
85%
05:00
19°
1015.8 hPa
25%
12.7°
2
Windvlaag: 4 m/s
81%
06:00
19°
1015.7 hPa
73%
12.4°
2
Windvlaag: 1.3 m/s
85%
07:00
19°
1016.3 hPa
17%
12.3°
3
Windvlaag: -1.8 m/s
84%
08:00
19°
1017.2 hPa
14%
13.1°
4
Windvlaag: -2.7 m/s
70%
09:00
20°
1018.0 hPa
14%
13.6°
4
Windvlaag: -3.3 m/s
22%
10:00
22°
1018.7 hPa
14%
14.3°
3
Windvlaag: -3.5 m/s
24%
11:00
22°
1019.8 hPa
21%
16.3°
3
Windvlaag: -1.6 m/s
87%
12:00
23°
1020.1 hPa
21%
16.5°
2
Windvlaag: -3.1 m/s
89%
13:00
24°
1020.1 hPa
29%
14.9°
3
Windvlaag: -4.1 m/s
66%
14:00
25°
1019.9 hPa
77%
13.1°
3
Windvlaag: -2.6 m/s
57%
15:00
26°
1019.9 hPa
31%
13.8°
3
Windvlaag: -2.4 m/s
90%
16:00
26°
1019.7 hPa 1.6 mm
79%
14.4°
3
Windvlaag: -4.8 m/s
75%
17:00
26°
1019.3 hPa 1.7 mm
22%
14.5°
2
Windvlaag: -5.6 m/s
67% warningclass
18:00
26°
1019.2 hPa
34%
14.4°
3
Windvlaag: -4.7 m/s
57%
19:00
25°
1019.0 hPa
21%
14.3°
2
Windvlaag: -4.1 m/s
46%
20:00
25°
1018.9 hPa
21%
13.5°
3
Windvlaag: -4 m/s
40%
21:00
23°
1019.1 hPa
22%
13.0°
3
Windvlaag: -4.6 m/s
57%
22:00
22°
1019.4 hPa
23%
12.4°
2
Windvlaag: -4.2 m/s
48%
23:00
21°
1019.5 hPa
24%
12.9°
3
Windvlaag: -4 m/s
82%
 06:04     21:32    Daglengte: 15:28 Vrijdag 20 Mei
00:00
20°
1019.5 hPa
26%
12.8°
3
Windvlaag: -3.4 m/s
68%
01:00
19°
1019.3 hPa
26%
12.4°
3
Windvlaag: -4 m/s
92%
02:00
19°
1018.6 hPa
30%
12.3°
3
Windvlaag: -2.7 m/s
60%
03:00
18°
1017.8 hPa
25%
12.7°
2
Windvlaag: -4.3 m/s
17%
04:00
18°
1017.6 hPa
28%
13.2°
2
Windvlaag: -4.6 m/s
58%
05:00
18°
1017.6 hPa 2.6 mm
82%
14.6°
2
Windvlaag: -2.2 m/s
84%
06:00
17°
1017.5 hPa 2.9 mm
84%
13.1°
1
Windvlaag: 8.3 m/s
97%
07:00
18°
1017.7 hPa
30%
13.1°
1
Windvlaag: 7.3 m/s
93%
08:00
18°
1017.5 hPa
34%
13.4°
1
Windvlaag: 3.8 m/s
41%
09:00
18°
1017.6 hPa 4.1 mm
100%
12.8°
1
Windvlaag: 5.1 m/s
96%
10:00
19°
1018.2 hPa 3.2 mm
100%
11.3°
2
Windvlaag: 9.7 m/s
96%
11:00
21°
1017.9 hPa 3.4 mm
100%
9.9°
3
Windvlaag: 9.4 m/s
98% warningclass
12:00
22°
1017.4 hPa 2.9 mm
100%
11.3°
3
Windvlaag: 8.6 m/s
67%
13:00
22°
1018.2 hPa 3.5 mm
100%
12.5°
4
Windvlaag: 6.2 m/s
97%
14:00
22°
1018.5 hPa
100%
11.6°
4
Windvlaag: 8.2 m/s
72%
15:00
26°
1018.2 hPa 8.2 mm
100%
15.4°
6
Windvlaag: 9.1 m/s
71%
16:00
27°
1018.3 hPa 8.3 mm
100%
15.4°
5
Windvlaag: 11.1 m/s
93%
17:00
25°
1018.8 hPa 8.5 mm
100%
17.1°
6
Windvlaag: 6 m/s
90% warningclass
Temp/Neerslag /Baro Onweer/Dauwpunt
    Temp Baro Neerslag Dauwpunt Wind Bewolking  
 06:07     21:28    Daglengte: 15:21 Vandaag
20:00
27°
Voelt als: 26.7°
1016.1 hPa   10.9°
3
7%
23:00
23°
1016.9 hPa   13.3°
2
13%
 06:06     21:30    Daglengte: 15:24 Morgen
02:00
21°
1018.5 hPa   16.7°
4
13%
05:00
18°
1019.8 hPa   14.4°
3
10%
08:00
18°
1021.9 hPa   13.1°
3
6%
11:00
21°
1022.0 hPa   12.8°
2
22%
14:00
26°
1020.6 hPa   11.0°
2
15%
17:00
28°
Voelt als: 27.3°
1018.4 hPa   10.2°
2
29%
20:00
26°
Voelt als: 26.0°
1017.2 hPa   8.6°
3
34%
23:00
23°
1016.7 hPa   10.3°
3
14%
 06:05     21:31    Daglengte: 15:26 Donderdag 19 Mei
02:00
21°
1015.8 hPa   12.1°
3
13%
05:00
19°
1015.8 hPa   12.7°
2
81%
08:00
19°
1017.2 hPa   13.1°
4
70%
11:00
22°
1019.8 hPa   16.3°
3
87%
14:00
25°
1019.9 hPa   13.1°
3
57%
17:00
26°
1019.3 hPa 3.3 mm 14.5°
2
67% warningclass
20:00
25°
1018.9 hPa   13.5°
3
40%
23:00
21°
1019.5 hPa   12.9°
3
82%
 06:04     21:32    Daglengte: 15:28 Vrijdag 20 Mei
02:00
19°
1018.6 hPa   12.3°
3
60%
05:00
18°
1017.6 hPa 2.6 mm 14.6°
2
84%
08:00
18°
1017.5 hPa 2.9 mm 13.4°
1
41%
11:00
21°
1017.9 hPa 10.7 mm 9.9°
3
98% warningclass
14:00
22°
1018.5 hPa 6.4 mm 11.6°
4
72%
17:00
25°
1018.8 hPa 25.0 mm 17.1°
6
90% warningclass
20:00
22°
1020.4 hPa 25.6 mm 13.1°
5
73%
23:00
16°
1022.9 hPa 15.1 mm 12.0°
2
1%
 06:03     21:34    Daglengte: 15:31 Zaterdag 21 Mei
02:00
14°
1023.6 hPa 15.1 mm 10.9°
2
0%
05:00
13°
1024.1 hPa 15.1 mm 9.5°
1
0%
08:00
14°
1024.5 hPa 15.1 mm 8.4°
1
1%
11:00
19°
1023.8 hPa 15.1 mm 9.1°
1
1%
14:00
23°
1022.5 hPa 15.1 mm 9.0°
1
1%
17:00
24°
1020.2 hPa 15.1 mm 8.5°
2
0%
20:00
22°
1018.8 hPa 15.1 mm 12.1°
3
0%
23:00
18°
1018.3 hPa 15.1 mm 12.0°
3
1%
 06:02     21:35    Daglengte: 15:33 Zondag 22 Mei
02:00
16°
1017.0 hPa 15.1 mm 11.1°
2
1%
05:00
15°
1013.4 hPa 15.2 mm 10.5°
2
1%
08:00
14°
1010.7 hPa 18.4 mm 12.8°
5
1%
11:00
18°
1009.4 hPa 19.3 mm 15.1°
4
1%
14:00
21°
1007.9 hPa 20.9 mm 17.6°
1
1%
17:00
17°
1010.0 hPa 22.7 mm 16.0°
6
1%
20:00
14°
1014.0 hPa 22.8 mm 12.8°
4
1%
23:00
13°
1016.5 hPa 22.8 mm 11.2°
3
0%
 06:01     21:36    Daglengte: 15:35 Maandag 23 Mei
02:00
12°
1017.4 hPa 22.8 mm 10.1°
2
0%
05:00
11°
1017.1 hPa 22.8 mm 9.2°
1
1%
08:00
13°
1017.0 hPa 22.8 mm 9.2°
2
1%
11:00
18°
1015.8 hPa 22.8 mm 10.8°
3
1%
14:00
21°
1014.5 hPa 22.9 mm 12.9°
4
1%
17:00
20°
1013.6 hPa 23.2 mm 15.1°
3
1%
20:00
19°
1013.8 hPa 23.4 mm 13.7°
3
1%
23:00
16°
1014.7 hPa 23.4 mm 13.1°
2
1%
 06:00     21:37    Daglengte: 15:37 Dinsdag 24 Mei
02:00
15°
1014.7 hPa 23.4 mm 12.1°
1
1%
05:00
14°
1014.2 hPa 23.4 mm 11.8°
1
1%
08:00
15°
1014.4 hPa 23.4 mm 11.8°
2
1%
11:00
19°
1014.4 hPa 23.4 mm 12.9°
2
1%
14:00
23°
1012.9 hPa 23.4 mm 14.1°
2
1%
17:00
25°
1011.5 hPa   13.6°
2
1%
20:00
23°
1011.0 hPa 46.8 mm 15.8°
3
1%
 05:59     21:38    Daglengte: 15:39 Woensdag 25 Mei
02:00
18°
1010.9 hPa 46.8 mm 15.1°
2
1%
08:00
19°
1009.5 hPa 46.8 mm 15.1°
2
1%
14:00
29°
1007.1 hPa 47.3 mm 17.2°
3
1%
20:00
28°
1005.8 hPa 47.4 mm 20.0°
5
1%
 05:58     21:39    Daglengte: 15:41 Donderdag 26 Mei
02:00
17°
1011.0 hPa 47.5 mm 11.9°
3
1%
08:00
14°
1014.8 hPa 57.2 mm 12.5°
5
1%
14:00
21°
1020.1 hPa 58.0 mm 6.5°
6
1%
20:00
20°
1022.0 hPa 58.0 mm 8.2°
3
0%
 05:57     21:41    Daglengte: 15:44 Vrijdag 27 Mei
02:00
15°
1024.3 hPa 58.0 mm 9.4°
2
0%
08:00
15°
1025.3 hPa 58.0 mm 8.8°
2
0%
14:00
21°
1018.4 hPa 0.4 mm 12.4°
0
39%
20:00
21°
1017.3 hPa 0.7 mm 14.0°
1
38%
 05:56     21:42    Daglengte: 15:46 Zaterdag 28 Mei
02:00
14°
1018.0 hPa 0.2 mm 10.9°
1
34%
08:00
14°
1017.8 hPa 0.4 mm 11.1°
1
40%
14:00
22°
1017.4 hPa 0.5 mm 12.5°
0
52%
20:00
20°
1016.6 hPa 0.7 mm 13.5°
1
50%
 05:55     21:43    Daglengte: 15:48 Zondag 29 Mei
02:00
14°
1017.9 hPa 2.2 mm 10.9°
1
51%
08:00
14°
1018.6 hPa 0.7 mm 10.9°
1
51%
14:00
21°
1018.8 hPa 0.8 mm 11.4°
1
46%
20:00
19°
1018.7 hPa 1.5 mm 12.1°
2
52%
 05:54     21:44    Daglengte: 15:50 Maandag 30 Mei
02:00
12°
1020.1 hPa 0.5 mm 8.8°
2
40%
08:00
13°
1020.4 hPa 0.3 mm 9.4°
1
33%
14:00
21°
1019.3 hPa 0.4 mm 10.8°
1
40%
20:00
19°
1018.1 hPa 0.8 mm 12.5°
2
54%
 05:54     21:45    Daglengte: 15:51 Dinsdag 31 Mei
02:00
13°
1019.0 hPa 0.1 mm 9.8°
1
48%
08:00
13°
1018.9 hPa 0.1 mm 10.2°
1
47%
14:00
21°
1018.1 hPa 0.3 mm 10.7°
1
41%
20:00
19°
1017.2 hPa 0.3 mm 11.7°
2
44%
 05:53     21:46    Daglengte: 15:53 Woensdag 01 Jun
02:00
13°
1018.4 hPa 0.4 mm 9.1°
1
36%
08:00
13°
1018.6 hPa   9.3°
1
32%
14:00
21°
1018.0 hPa 0.2 mm 10.9°
1
36%
  CAPE Lifted Index Hail Supercell Tornado SRH 3km CL BTM PRES CL TOP PRES Swiss DWD icon SMHI TS
 06:07     21:28    Daglengte: 15:21 Vandaag
18:00 0 J/kg 0.6 K 0 % 0 % 0 % 0 m²/s² 0 0 3.51 2
19:00 0 J/kg 0.7 K 0 % 0 % 0 % 0 m²/s² 0 0 2.92 1
20:00 26 J/kg -0.6 K 0 % 0 % 0 % 0 m²/s² 0 0 1.35 3
21:00 231 J/kg -1.7 K 0 % 0 % 0 % 0 m²/s² 0 0 -0.17 2
22:00 472 J/kg -2.3 K 0 % 0 % 0 % 0 m²/s² 0 0 -1.4 3
23:00 592 J/kg -2.5 K 0 % 0 % 0 % 0 m²/s² 0 0 -2.38 2
 06:06     21:30    Daglengte: 15:24 Morgen
00:00 763 J/kg -2.3 K 0 % 0 % 0 % 0 m²/s² 0 0 -1.04 2
01:00 817 J/kg -2.5 K 0 % 0 % 0 % 0 m²/s² 0 0 -1.93 2
02:00 802 J/kg -2.4 K 0 % 0 % 0 % 0 m²/s² 0 0 0.33 2
03:00 642 J/kg -1.9 K 0 % 0 % 0 % 0 m²/s² 0 0 1.61 1
04:00 494 J/kg -1.6 K 0 % 0 % 0 % 0 m²/s² 0 0 2.51 1
05:00 318 J/kg -1.3 K 0 % 0 % 0 % 0 m²/s² 0 0 2.81 0
06:00 43 J/kg -0.2 K 0 % 0 % 0 % 0 m²/s² 0 0 4.84 0
07:00 0 J/kg 0.6 K 0 % 0 % 0 % 0 m²/s² 0 0 6.18 0
08:00 1 J/kg 1.1 K 0 % 0 % 0 % 0 m²/s² 0 0 6.14 1
09:00 2 J/kg 1.9 K 0 % 0 % 0 % 0 m²/s² 0 0 6.67 2
10:00 3 J/kg 1.8 K 0 % 0 % 0 % 0 m²/s² 0 0 6.57 1
11:00 4 J/kg 1.4 K 0 % 0 % 0 % 0 m²/s² 0 0 6.44 1
12:00 1 J/kg 0.8 K 0 % 0 % 0 % 0 m²/s² 0 0 5.21 1
13:00 0 J/kg 1.0 K 0 % 0 % 0 % 0 m²/s² 0 0 4.42 1
14:00 0 J/kg 2.3 K 0 % 0 % 0 % 0 m²/s² 0 0 5.21 1
15:00 0 J/kg 2.7 K 0 % 0 % 0 % 0 m²/s² 0 0 5.85 1
16:00 0 J/kg 2.6 K 0 % 0 % 0 % 0 m²/s² 0 0 5.69 1
17:00 0 J/kg 2.2 K 0 % 0 % 0 % 0 m²/s² 0 0 5.2 3
18:00 0 J/kg 1.7 K 0 % 0 % 0 % 0 m²/s² 0 0 4.88 3
19:00 0 J/kg 1.0 K 0 % 0 % 0 % 0 m²/s² 0 0 4.81 3
20:00 1 J/kg 0.2 K 0 % 0 % 0 % 0 m²/s² 0 0 3.62 2
21:00 4 J/kg -0.8 K 0 % 0 % 0 % 0 m²/s² 0 0 2.62 1
22:00 31 J/kg -1.9 K 0 % 0 % 0 % 0 m²/s² 0 0 2.03 2
23:00 78 J/kg -1.6 K 0 % 0 % 0 % 0 m²/s² 0 0 2.42 2
 06:05     21:31    Daglengte: 15:26 Donderdag 19 Mei
00:00 0 J/kg -4.2 K 0 % 0 % 0 % 0 m²/s² 0 0 -0.36 3
01:00 188 J/kg -6.1 K 0 % 0 % 0 % 0 m²/s² 0 0 -3.64 3
02:00 706 J/kg -5.7 K 0 % 0 % 0 % 0 m²/s² 0 0 -3.69 2
03:00 274 J/kg -4.2 K 0 % 0 % 0 % 0 m²/s² 0 0 -3.15 2
04:00 0 J/kg -4.5 K 0 % 0 % 0 % 0 m²/s² 0 0 -3.78 3
05:00 0 J/kg -3.8 K 0 % 0 % 0 % 0 m²/s² 0 0 -2.99 3
06:00 0 J/kg -4.6 K 0 % 0 % 0 % 0 m²/s² 0 0 -3.22 3
07:00 0 J/kg -3.2 K 0 % 0 % 0 % 0 m²/s² 0 0 -2.48 3
08:00 0 J/kg -1.9 K 0 % 0 % 0 % 0 m²/s² 0 0 -1.39 3
09:00 449 J/kg -2.4 K 0 % 0 % 0 % 0 m²/s² 0 0 -1.89 1
10:00 778 J/kg -3.2 K 0 % 0 % 0 % 0 m²/s² 0 0 -2.9 3
11:00 796 J/kg -3.3 K 0 % 0 % 0 % 0 m²/s² 0 0 -2.46 3
12:00 789 J/kg -3.4 K 0 % 0 % 0 % 0 m²/s² 0 0 -1.63 3
13:00 608 J/kg -2.6 K 0 % 0 % 0 % 0 m²/s² 0 0 -0.71 3
14:00 577 J/kg -2.2 K 0 % 0 % 0 % 0 m²/s² 0 0 0.62 3
15:00 808 J/kg -3.0 K 0 % 0 % 0 % 0 m²/s² 0 0 0.15 3
16:00 1028 J/kg -3.6 K 0 % 0 % 0 % 0 m²/s² 0 0 -1.29 3
17:00 1144 J/kg -4.1 K 0 % 0 % 0 % 0 m²/s² 0 0 -2.12 3
18:00 1121 J/kg -3.9 K 0 % 0 % 0 % 0 m²/s² 0 0 -2.31 2
19:00 1101 J/kg -3.9 K 0 % 0 % 0 % 0 m²/s² 0 0 -2.46 3
20:00 1112 J/kg -4.1 K 0 % 0 % 0 % 0 m²/s² 0 0 -2.45 2
21:00 1045 J/kg -4.2 K 0 % 0 % 0 % 0 m²/s² 0 0 -2.37 2
22:00 840 J/kg -4.0 K 0 % 0 % 0 % 0 m²/s² 0 0 -2.23 2
23:00 430 J/kg -3.8 K 0 % 0 % 0 % 0 m²/s² 0 0 -1.88 3
 06:04     21:32    Daglengte: 15:28 Vrijdag 20 Mei
00:00 27 J/kg -4.5 K 0 % 0 % 0 % 0 m²/s² 0 0 -1.98 3
01:00 0 J/kg -4.5 K 0 % 0 % 0 % 0 m²/s² 0 0 -1.65 3
02:00 0 J/kg -4.9 K 0 % 0 % 0 % 0 m²/s² 0 0 -1.81 3
03:00 0 J/kg -5.0 K 0 % 0 % 0 % 0 m²/s² 0 0 -2.24 2
04:00 0 J/kg -4.2 K 0 % 0 % 0 % 0 m²/s² 0 0 -3.54 2
05:00 0 J/kg -0.6 K 0 % 0 % 0 % 0 m²/s² 0 0 -0.6 3
06:00 30 J/kg -1.1 K 0 % 0 % 0 % 0 m²/s² 0 0 -0.98 80
07:00 2 J/kg -1.4 K 0 % 0 % 0 % 0 m²/s² 0 0 -0.74 3
08:00 22 J/kg -1.7 K 0 % 0 % 0 % 0 m²/s² 0 0 -0.68 3
09:00 93 J/kg -2.5 K 0 % 0 % 0 % 0 m²/s² 0 0 -1.6 80
10:00 6 J/kg -2.1 K 0 % 0 % 0 % 0 m²/s² 0 0 -1.17 80
11:00 0 J/kg -0.4 K 0 % 0 % 0 % 0 m²/s² 0 0 0.71 95
12:00 0 J/kg -2.7 K 0 % 0 % 0 % 0 m²/s² 0 0 -1.68 3
13:00 0 J/kg -2.5 K 0 % 0 % 0 % 0 m²/s² 0 0 -0.91 80
14:00 321 J/kg -1.7 K 0 % 0 % 0 % 0 m²/s² 0 0 -0.29 3
15:00 760 J/kg -2.7 K 0 % 0 % 0 % 0 m²/s² 0 0 -1.05
16:00 872 J/kg -3.0 K 0 % 0 % 0 % 0 m²/s² 0 0 -1.23
17:00 1138 J/kg -3.7 K 0 % 0 % 0 % 0 m²/s² 0 0 -2.17
Temp Baro Wind Neerslag
  EWN Forecast EWN WRFDA DWD ICON FMI HIRLAM MET Norway GFS
 06:07     21:28    Daglengte: 15:21 Vandaag
20:00 27.0° 1016.1 hPa 3.0 m/s 0.0 mm 28.0° 1015.7 hPa 3.6 m/s 0.0 mm 26.8° 1016.1 hPa 1.8 m/s -2.0 mm 28.0° 1015.8 hPa 5.4 m/s 0.0 mm 25.7° 1016.1 hPa 2.7 m/s
23:00 23.0° 1016.9 hPa 1.7 m/s 0.0 mm 25.0° 1016.8 hPa 1.4 m/s 0.1 mm 22.5° 1016.9 hPa 1.3 m/s 0.0 mm 24.5° 1016.8 hPa 3.2 m/s 0.0 mm 21.4° 1017.5 hPa 2.3 m/s
 06:06     21:30    Daglengte: 15:24 Morgen
02:00 20.7° 1018.5 hPa 4.0 m/s 0.0 mm 20.9° 1018.1 hPa 1.6 m/s 10.4 mm 19.6° 1018.3 hPa 2.1 m/s 0.0 mm 21.8° 1018.4 hPa 5.0 m/s 0.0 mm 18.7° 1019.2 hPa 1.3 m/s
05:00 17.9° 1019.8 hPa 3.1 m/s 0.0 mm 18.8° 1019.0 hPa 0.9 m/s 11.0 mm 17.6° 1019.1 hPa 1.8 m/s 0.0 mm 18.8° 1020.0 hPa 4.0 m/s 0.0 mm 17.1° 1020.0 hPa 2.0 m/s
08:00 17.7° 1021.9 hPa 3.1 m/s 0.0 mm 16.8° 1020.4 hPa 3.6 m/s 11.0 mm 17.9° 1021.4 hPa 1.9 m/s 0.0 mm 18.1° 1022.3 hPa 3.4 m/s 0.0 mm 17.0° 1021.9 hPa 2.6 m/s
11:00 20.7° 1022.0 hPa 2.0 m/s 0.0 mm 18.6° 1021.6 hPa 2.1 m/s 11.0 mm 21.8° 1021.4 hPa 1.9 m/s 0.0 mm 20.5° 1023.1 hPa 1.6 m/s 0.0 mm 21.4° 1022.3 hPa 1.9 m/s
14:00 25.6° 1020.6 hPa 1.6 m/s 0.0 mm 23.9° 1020.8 hPa 0.4 m/s 11.0 mm 26.1° 1020.0 hPa 1.6 m/s 0.0 mm 23.5° 1022.7 hPa 1.1 m/s 0.0 mm 25.6° 1020.8 hPa 1.7 m/s
17:00 28.1° 1018.4 hPa 2.3 m/s 0.0 mm 27.0° 1019.2 hPa 1.3 m/s 11.0 mm 28.6° 1017.9 hPa 2.5 m/s 0.0 mm 25.5° 1021.2 hPa 1.4 m/s 0.0 mm 26.3° 1019.0 hPa 3.4 m/s
20:00 26.2° 1017.2 hPa 2.7 m/s 0.0 mm 27.1° 1017.8 hPa 4.0 m/s 11.0 mm 27.4° 1016.8 hPa 2.6 m/s 0.0 mm 25.5° 1020.0 hPa 2.9 m/s 0.0 mm 23.9° 1018.1 hPa 2.8 m/s
23:00 22.7° 1016.7 hPa 2.6 m/s 0.0 mm 24.8° 1016.5 hPa 4.6 m/s 11.0 mm 23.2° 1016.5 hPa 1.4 m/s 0.0 mm 22.0° 1019.5 hPa 2.7 m/s 0.0 mm 19.9° 1017.7 hPa 2.1 m/s
 06:05     21:31    Daglengte: 15:26 Donderdag 19 Mei
02:00 21.0° 1015.8 hPa 2.6 m/s 0.0 mm 23.5° 1015.6 hPa 4.6 m/s 11.0 mm 21.8° 1015.7 hPa 1.5 m/s 0.0 mm 20.1° 1017.6 hPa 3.4 m/s 0.0 mm 18.9° 1016.2 hPa 2.9 m/s
05:00 19.5° 1015.8 hPa 2.0 m/s 0.0 mm 19.5° 1016.4 hPa 2.5 m/s 12.8 mm 19.7° 1016.1 hPa 1.0 m/s 0.0 mm 19.3° 1015.9 hPa 3.8 m/s 0.0 mm 18.6° 1016.1 hPa 0.2 m/s
08:00 19.5° 1017.2 hPa 4.0 m/s 0.0 mm 20.3° 1017.2 hPa 3.7 m/s 13.4 mm 19.6° 1017.9 hPa 2.5 m/s 0.0 mm 20.2° 1015.5 hPa 5.2 m/s 0.0 mm 18.8° 1017.4 hPa 2.0 m/s
11:00 22.1° 1019.8 hPa 2.6 m/s 0.0 mm 22.8° 1020.0 hPa 2.9 m/s 13.5 mm 22.8° 1019.5 hPa 2.6 m/s 0.0 mm 22.6° 1018.8 hPa 2.8 m/s
14:00 24.9° 1019.9 hPa 2.6 m/s 0.0 mm 26.2° 1019.9 hPa 3.4 m/s 13.5 mm 25.2° 1020.2 hPa 2.7 m/s 0.0 mm 24.4° 1019.8 hPa 3.1 m/s
17:00 25.6° 1019.3 hPa 2.4 m/s 3.3 mm 27.0° 1019.3 hPa 2.5 m/s 14.0 mm 26.0° 1019.1 hPa 1.7 m/s 0.0 mm 25.6° 1019.5 hPa 3.2 m/s
20:00 24.6° 1018.9 hPa 2.7 m/s 0.0 mm 26.8° 1018.9 hPa 1.5 m/s 15.1 mm 24.5° 1019.3 hPa 2.8 m/s 0.0 mm 23.0° 1019.3 hPa 2.8 m/s
23:00 21.1° 1019.5 hPa 3.5 m/s 0.0 mm 24.4° 1019.6 hPa 4.2 m/s 16.7 mm 20.7° 1019.8 hPa 2.6 m/s 0.0 mm 19.1° 1020.6 hPa 2.7 m/s
 06:04     21:32    Daglengte: 15:28 Vrijdag 20 Mei
02:00 18.7° 1018.6 hPa 2.7 m/s 0.0 mm 20.8° 1018.7 hPa 3.1 m/s 18.5 mm 18.1° 1019.4 hPa 1.7 m/s 0.0 mm 17.5° 1020.4 hPa 2.6 m/s
05:00 17.9° 1017.6 hPa 2.0 m/s 2.6 mm 20.4° 1018.5 hPa 4.6 m/s 19.8 mm 16.8° 1017.7 hPa 0.7 m/s 0.1 mm 16.6° 1018.2 hPa 2.2 m/s
08:00 18.2° 1017.5 hPa 0.6 m/s 2.9 mm 21.1° 1018.5 hPa 1.3 m/s 24.4 mm 17.5° 1017.3 hPa 0.4 m/s 0.4 mm 16.8° 1018.0 hPa 2.3 m/s
11:00 20.7° 1017.9 hPa 2.9 m/s 10.7 mm 24.1° 1018.2 hPa 5.6 m/s 24.6 mm 19.9° 1017.8 hPa 2.3 m/s 3.7 mm 18.4° 1018.1 hPa 3.8 m/s
14:00 21.9° 1018.5 hPa 4.1 m/s 6.4 mm 25.5° 1018.1 hPa 5.8 m/s 24.6 mm 21.0° 1018.6 hPa 3.7 m/s 1.5 mm 20.1° 1018.4 hPa 4.3 m/s
17:00 25.3° 1018.8 hPa 5.8 m/s 25.0 mm 25.3° 1018.8 hPa 5.8 m/s 25.0 mm 20.8° 1020.0 hPa 4.6 m/s
20:00 21.7° 1020.4 hPa 5.2 m/s 25.6 mm 21.7° 1020.4 hPa 5.2 m/s 25.6 mm 19.6° 1021.0 hPa 3.7 m/s
23:00 16.2° 1022.9 hPa 2.0 m/s 15.1 mm 16.2° 1022.9 hPa 2.0 m/s 15.1 mm
 06:03     21:34    Daglengte: 15:31 Zaterdag 21 Mei
02:00 14.5° 1023.6 hPa 1.9 m/s 15.1 mm 14.5° 1023.6 hPa 1.9 m/s 15.1 mm
05:00 12.9° 1024.1 hPa 1.1 m/s 15.1 mm 12.9° 1024.1 hPa 1.1 m/s 15.1 mm
08:00 14.2° 1024.5 hPa 1.0 m/s 15.1 mm 14.2° 1024.5 hPa 1.0 m/s 15.1 mm
11:00 18.9° 1023.8 hPa 0.6 m/s 15.1 mm 18.9° 1023.8 hPa 0.6 m/s 15.1 mm
14:00 23.0° 1022.5 hPa 0.6 m/s 15.1 mm 23.0° 1022.5 hPa 0.6 m/s 15.1 mm
17:00 24.2° 1020.2 hPa 1.6 m/s 15.1 mm 24.2° 1020.2 hPa 1.6 m/s 15.1 mm
20:00 21.7° 1018.8 hPa 3.0 m/s 15.1 mm 21.7° 1018.8 hPa 3.0 m/s 15.1 mm
23:00 18.1° 1018.3 hPa 2.9 m/s 15.1 mm 18.1° 1018.3 hPa 2.9 m/s 15.1 mm
 06:02     21:35    Daglengte: 15:33 Zondag 22 Mei
02:00 16.3° 1017.0 hPa 2.3 m/s 15.1 mm 16.3° 1017.0 hPa 2.3 m/s 15.1 mm
05:00 15.5° 1013.4 hPa 2.0 m/s 15.2 mm 15.5° 1013.4 hPa 2.0 m/s 15.2 mm
08:00 14.0° 1010.7 hPa 4.7 m/s 18.4 mm 14.0° 1010.7 hPa 4.7 m/s 18.4 mm
11:00 17.7° 1009.4 hPa 3.5 m/s 19.3 mm 17.7° 1009.4 hPa 3.5 m/s 19.3 mm
14:00 21.0° 1007.9 hPa 1.3 m/s 20.9 mm 21.0° 1007.9 hPa 1.3 m/s 20.9 mm
17:00 16.6° 1010.0 hPa 5.6 m/s 22.7 mm 16.6° 1010.0 hPa 5.6 m/s 22.7 mm
20:00 14.2° 1014.0 hPa 4.1 m/s 22.8 mm 14.2° 1014.0 hPa 4.1 m/s 22.8 mm
23:00 13.0° 1016.5 hPa 3.4 m/s 22.8 mm 13.0° 1016.5 hPa 3.4 m/s 22.8 mm
 06:01     21:36    Daglengte: 15:35 Maandag 23 Mei
02:00 11.7° 1017.4 hPa 1.8 m/s 22.8 mm 11.7° 1017.4 hPa 1.8 m/s 22.8 mm
05:00 11.1° 1017.1 hPa 0.8 m/s 22.8 mm 11.1° 1017.1 hPa 0.8 m/s 22.8 mm
08:00 12.9° 1017.0 hPa 1.6 m/s 22.8 mm 12.9° 1017.0 hPa 1.6 m/s 22.8 mm
11:00 17.9° 1015.8 hPa 2.7 m/s 22.8 mm 17.9° 1015.8 hPa 2.7 m/s 22.8 mm
14:00 21.1° 1014.5 hPa 3.5 m/s 22.9 mm 21.1° 1014.5 hPa 3.5 m/s 22.9 mm
17:00 20.2° 1013.6 hPa 3.1 m/s 23.2 mm 20.2° 1013.6 hPa 3.1 m/s 23.2 mm
20:00 19.3° 1013.8 hPa 3.2 m/s 23.4 mm 19.3° 1013.8 hPa 3.2 m/s 23.4 mm
23:00 16.2° 1014.7 hPa 1.8 m/s 23.4 mm 16.2° 1014.7 hPa 1.8 m/s 23.4 mm
 06:00     21:37    Daglengte: 15:37 Dinsdag 24 Mei
02:00 14.9° 1014.7 hPa 1.5 m/s 23.4 mm 14.9° 1014.7 hPa 1.5 m/s 23.4 mm
05:00 13.6° 1014.2 hPa 1.4 m/s 23.4 mm 13.6° 1014.2 hPa 1.4 m/s 23.4 mm
08:00 15.0° 1014.4 hPa 2.1 m/s 23.4 mm 15.0° 1014.4 hPa 2.1 m/s 23.4 mm
11:00 19.1° 1014.4 hPa 2.2 m/s 23.4 mm 19.1° 1014.4 hPa 2.2 m/s 23.4 mm
14:00 23.0° 1012.9 hPa 2.3 m/s 23.4 mm 23.0° 1012.9 hPa 2.3 m/s 23.4 mm
17:00 24.7° 1011.5 hPa 2.1 m/s 23.4 mm 24.7° 1011.5 hPa 2.1 m/s 23.4 mm
20:00 23.4° 1011.0 hPa 2.5 m/s 23.4 mm 23.4° 1011.0 hPa 2.5 m/s 23.4 mm
 05:59     21:38    Daglengte: 15:39 Woensdag 25 Mei
02:00 18.4° 1010.9 hPa 2.2 m/s 23.4 mm 18.4° 1010.9 hPa 2.2 m/s 23.4 mm
08:00 18.8° 1009.5 hPa 2.3 m/s 23.4 mm 18.8° 1009.5 hPa 2.3 m/s 23.4 mm
14:00 28.5° 1007.1 hPa 3.0 m/s 23.7 mm 28.5° 1007.1 hPa 3.0 m/s 23.7 mm
20:00 27.5° 1005.8 hPa 4.5 m/s 23.7 mm 27.5° 1005.8 hPa 4.5 m/s 23.7 mm
 05:58     21:39    Daglengte: 15:41 Donderdag 26 Mei
02:00 17.1° 1011.0 hPa 3.4 m/s 23.7 mm 17.1° 1011.0 hPa 3.4 m/s 23.7 mm
08:00 14.1° 1014.8 hPa 5.3 m/s 29.0 mm 14.1° 1014.8 hPa 5.3 m/s 29.0 mm
14:00 20.6° 1020.1 hPa 5.8 m/s 29.0 mm 20.6° 1020.1 hPa 5.8 m/s 29.0 mm
20:00 19.9° 1022.0 hPa 2.9 m/s 29.0 mm 19.9° 1022.0 hPa 2.9 m/s 29.0 mm
 05:57     21:41    Daglengte: 15:44 Vrijdag 27 Mei
02:00 14.8° 1024.3 hPa 1.7 m/s 29.0 mm 14.8° 1024.3 hPa 1.7 m/s 29.0 mm
08:00 14.6° 1025.3 hPa 2.0 m/s 29.0 mm 14.6° 1025.3 hPa 2.0 m/s 29.0 mm
14:00 21.4° 1018.4 hPa 0.2 m/s 0.4 mm
20:00 20.8° 1017.3 hPa 0.8 m/s 0.7 mm
 05:56     21:42    Daglengte: 15:46 Zaterdag 28 Mei
02:00 14.5° 1018.0 hPa 0.9 m/s 0.2 mm
08:00 14.5° 1017.8 hPa 0.7 m/s 0.4 mm
14:00 22.2° 1017.4 hPa 0.2 m/s 0.5 mm
20:00 20.2° 1016.6 hPa 1.2 m/s 0.7 mm
 05:55     21:43    Daglengte: 15:48 Zondag 29 Mei
02:00 14.1° 1017.9 hPa 0.8 m/s 2.2 mm
08:00 13.7° 1018.6 hPa 0.8 m/s 0.7 mm
14:00 20.6° 1018.8 hPa 1.4 m/s 0.8 mm
20:00 18.8° 1018.7 hPa 2.2 m/s 1.5 mm
 05:54     21:44    Daglengte: 15:50 Maandag 30 Mei
02:00 12.1° 1020.1 hPa 1.6 m/s 0.5 mm
08:00 12.6° 1020.4 hPa 1.3 m/s 0.3 mm
14:00 20.9° 1019.3 hPa 0.9 m/s 0.4 mm
20:00 19.4° 1018.1 hPa 1.9 m/s 0.8 mm
 05:54     21:45    Daglengte: 15:51 Dinsdag 31 Mei
02:00 13.0° 1019.0 hPa 1.3 m/s 0.1 mm
08:00 13.4° 1018.9 hPa 1.0 m/s 0.1 mm
14:00 20.6° 1018.1 hPa 1.2 m/s 0.3 mm
20:00 19.1° 1017.2 hPa 1.8 m/s 0.3 mm
 05:53     21:46    Daglengte: 15:53 Woensdag 01 Jun
02:00 12.6° 1018.4 hPa 1.0 m/s 0.4 mm
08:00 13.2° 1018.6 hPa 0.9 m/s 0.0 mm
14:00 21.1° 1018.0 hPa 1.2 m/s 0.2 mm
FMI Hirlam - 7.5 km EWN WRFDA - 12 km DWD ICON - 7 km GFS - 25 km Basiskaart






























































Updatetijd (Europe/Brussels) Resolutie Lengte Stap
FMI Hirlam 14:00, 20:00, 02:00, 08:00 7.5 km 49h 1h
EWN WRFDA 16:15, 22:15, 04:15, 10:15 12 km 73h 1h
DWD ICON 11:45, 17:45, 23:45, 05:45 7 km 75h 1h
GFS 14:15, 20:15, 02:15, 08:15 25 km 237h 3h
30+ mm
25-30 mm
20-25 mm
15-20 mm
10-15 mm
6-10 mm
4-6 mm
2-4 mm
1-2 mm
0.5-1 mm
0.2-0.5 mm
0.1-0.2 mm
30+ mm
25-30 mm
20-25 mm
15-20 mm
10-15 mm
6-10 mm
4-6 mm
2-4 mm
1-2 mm
0.5-1 mm
0.2-0.5 mm
0.1-0.2 mm
Sneeuwval
Natte sneeuw
Hagel
Vorst
30+ mm
25-30 mm
20-25 mm
15-20 mm
10-15 mm
6-10 mm
4-6 mm
2-4 mm
1-2 mm
0.5-1 mm
0.2-0.5 mm
0.1-0.2 mm
Sneeuwval
Natte sneeuw
Hagel
Vorst
Onweer
50 mm
40 mm
30 mm
26 mm
22 mm
18 mm
14 mm
10 mm
9 mm
8 mm
7 mm
6 mm
5 mm
4.5 mm
4 mm
3.5 mm
3 mm
2.5 mm
2 mm
1.5 mm
1 mm
0.8 mm
0.6 mm
0.4 mm
0.2 mm
0.05 mm
35°
30°
25°
20°
15°
10°
-5°
-10°
-15°
-20°
-25°
-30°
-35°
33> m/s
29 m/s
25 m/s
21 m/s
17 m/s
14 m/s
11 m/s
8 m/s
5 m/s
3 m/s
0 m/s
2600 J/kg
2400 J/kg
2200 J/kg
2000 J/kg
1800 J/kg
1600 J/kg
1400 J/kg
1200 J/kg
1000 J/kg
800 J/kg
600 J/kg
400 J/kg
200 J/kg
70 dBZ
65 dBZ
60 dBZ
55 dBZ
50 dBZ
45 dBZ
40 dBZ
35 dBZ
30 dBZ
25 dBZ
20 dBZ
15 dBZ
10 dBZ
5 dBZ
-1 K
-2 K
-3 K
-4 K
-5 K
-6 K
-7 K
-8 K
-9 K
950 m²/s²
900 m²/s²
850 m²/s²
800 m²/s²
750 m²/s²
700 m²/s²
650 m²/s²
600 m²/s²
550 m²/s²
500 m²/s²
450 m²/s²
400 m²/s²
350 m²/s²
300 m²/s²
250 m²/s²
200 m²/s²
150 m²/s²
100 m²/s²
46 m/s
44 m/s
42 m/s
40 m/s
38 m/s
36 m/s
34 m/s
32 m/s
30 m/s
28 m/s
26 m/s
24 m/s
22 m/s
20 m/s
16 m/s
12 m/s
8 m/s
4 m/s
30 m/s
28 m/s
26 m/s
24 m/s
22 m/s
20 m/s
18 m/s
16 m/s
14 m/s
12 m/s
10 m/s
8 m/s
6 m/s
4 m/s
2 m/s
3.0
2.8
2.6
2.4
2.2
2.0
1.8
1.6
1.4
1.2
1.0
0.8
0.6
0.4
0.2
15
14
13
12
11
10
9
8
7
6
5
4
3
2
1
90%
80%
70%
60%
50%
40%
30%
20%
10%
42
40
38
36
34
32
30
28
26
24
22
20
18
16
14
12
90+ cm
80-90 cm
70-80 cm
60-70 cm
50-60 cm
40-50 cm
30-40 cm
20-30 cm
10-20 cm
1-10 cm
Sneeuwval
Natte sneeuw
Regen
>120 mm
115 mm
110 mm
105 mm
100 mm
95 mm
90 mm
85 mm
80 mm
75 mm
70 mm
65 mm
60 mm
55 mm
50 mm
45 mm
45 mm
40 mm
35 mm
30 mm
25 mm
20 mm
15 mm
10 mm
5 mm
0.1 mm
960 hPa
880 hPa
800 hPa
720 hPa
640 hPa
560 hPa
584 gpdm
568 gpdm
552 gpd